TimePDT,TemperatureF,Dew PointF,Humidity,Sea Level PressureIn,VisibilityMPH,Wind Direction,Wind SpeedMPH,Gust SpeedMPH,PrecipitationIn,Events,Conditions,WindDirDegrees,DateUTC
12:53 AM,57.9,51.1,78,30.11,10.0,West,5.8,-,N/A,,Clear,260,2013-07-04 07:53:00
1:53 AM,55.0,51.1,86,30.12,10.0,West,4.6,-,N/A,,Clear,280,2013-07-04 08:53:00
2:53 AM,55.0,51.1,86,30.12,10.0,Calm,Calm,-,N/A,,Clear,0,2013-07-04 09:53:00
3:53 AM,53.1,50.0,89,30.12,10.0,Calm,Calm,-,N/A,,Clear,0,2013-07-04 10:53:00
4:53 AM,52.0,50.0,93,30.13,10.0,Calm,Calm,-,N/A,,Clear,0,2013-07-04 11:53:00
5:53 AM,48.9,48.0,97,30.14,10.0,Calm,Calm,-,N/A,,Clear,0,2013-07-04 12:53:00
6:53 AM,54.0,51.1,90,30.16,10.0,Calm,Calm,-,N/A,,Clear,0,2013-07-04 13:53:00
7:53 AM,57.9,51.1,78,30.16,10.0,Calm,Calm,-,N/A,,Clear,0,2013-07-04 14:53:00
8:53 AM,62.1,51.1,67,30.16,10.0,Calm,Calm,-,N/A,,Clear,0,2013-07-04 15:53:00
9:53 AM,64.0,50.0,60,30.16,10.0,Calm,Calm,-,N/A,,Clear,0,2013-07-04 16:53:00
10:53 AM,69.1,48.9,49,30.14,10.0,Variable,4.6,-,N/A,,Clear,0,2013-07-04 17:53:00
11:53 AM,71.1,48.9,45,30.13,10.0,Calm,Calm,-,N/A,,Clear,0,2013-07-04 18:53:00
12:53 PM,73.9,50.0,43,30.12,10.0,Variable,3.5,-,N/A,,Clear,0,2013-07-04 19:53:00
1:53 PM,73.9,51.1,45,30.10,10.0,NE,9.2,-,N/A,,Partly Cloudy,40,2013-07-04 20:53:00
2:53 PM,77.0,51.1,40,30.08,10.0,Variable,4.6,-,N/A,,Partly Cloudy,0,2013-07-04 21:53:00
3:53 PM,78.1,52.0,40,30.06,10.0,Variable,6.9,-,N/A,,Scattered Clouds,0,2013-07-04 22:53:00
4:53 PM,78.1,52.0,40,30.05,10.0,NNE,8.1,-,N/A,,Clear,20,2013-07-04 23:53:00
5:53 PM,75.0,51.1,43,30.04,10.0,NNE,11.5,-,N/A,,Clear,20,2013-07-05 00:53:00
6:53 PM,72.0,51.1,48,30.04,10.0,NNE,17.3,20.7,N/A,,Clear,20,2013-07-05 01:53:00
7:53 PM,69.1,50.0,51,30.05,10.0,North,17.3,-,N/A,,Clear,10,2013-07-05 02:53:00
8:53 PM,64.9,50.0,58,30.06,10.0,North,12.7,-,N/A,,Clear,360,2013-07-05 03:53:00
9:53 PM,61.0,48.9,64,30.07,10.0,North,10.4,-,N/A,,Clear,350,2013-07-05 04:53:00
10:53 PM,59.0,48.9,69,30.08,10.0,North,3.5,-,N/A,,Clear,350,2013-07-05 05:53:00
11:53 PM,57.0,48.9,74,30.08,10.0,NW,5.8,-,N/A,,Clear,320,2013-07-05 06:53:00